This is the latest recevied weather packets stored in our database for station/object F5ZQC-13. If no packets are shown the sender has not sent any weather packets the latest 10 day(s).
| Time | Temp. | Humidity | Pressure | Rain* | Wind** | Luminosity | Snow |
|---|---|---|---|---|---|---|---|
| 1777681732 | 14.44° C | 54% | 1017 hPa | 0 mm | - | - | - |
| 1777681658 | 14.44° C | 54% | 1016.8 hPa | 0 mm | - | - | - |
| 1777681609 | 14.44° C | 54% | 1016.8 hPa | 0 mm | - | - | - |
| 1777681365 | 14.44° C | 54% | 1016.6 hPa | 0 mm | - | - | - |
| 1777681242 | 14.44° C | 54% | 1016.7 hPa | 0 mm | - | - | - |
| 1777681120 | 14.44° C | 55% | 1016.8 hPa | 0 mm | - | - | - |
| 1777680876 | 14.44° C | 54% | 1016.8 hPa | 0 mm | - | - | - |
| 1777680813 | 14.44° C | 58% | 1016.9 hPa | 0 mm | - | - | - |
| 1777680735 | 14.44° C | 53% | 1017.1 hPa | 0 mm | - | - | - |
| 1777680687 | 14.44° C | 53% | 1017.1 hPa | 0 mm | - | - | - |
| 1777680564 | 14.44° C | 54% | 1017 hPa | 0 mm | - | - | - |
| 1777680319 | 14.44° C | 55% | 1016.8 hPa | 0 mm | - | - | - |
| 1777680198 | 14.44° C | 56% | 1017.1 hPa | 0 mm | - | - | - |
| 1777679909 | 14.44° C | 54% | 1017 hPa | 0 mm | - | - | - |
| 1777679834 | 14.44° C | 54% | 1016.7 hPa | 0 mm | - | - | - |
| 1777679787 | 14.44° C | 54% | 1016.7 hPa | 0 mm | - | - | - |
| 1777679555 | 15° C | 55% | 1017.1 hPa | 0 mm | - | - | - |
| 1777679543 | 15° C | 55% | 1017.1 hPa | 0 mm | - | - | - |
| 1777679176 | 15° C | 54% | 1016.9 hPa | 0 mm | - | - | - |
| 1777679099 | 15° C | 55% | 1017 hPa | 0 mm | - | - | - |
| 1777679054 | 15° C | 55% | 1017 hPa | 0 mm | - | - | - |
| 1777678931 | 15° C | 55% | 1016.9 hPa | 0 mm | - | - | - |
| 1777678260 | 15° C | 55% | 1017.1 hPa | 0 mm | - | - | - |
| 1777678138 | 15° C | 54% | 1017.5 hPa | 0 mm | - | - | - |
| 1777678015 | 15° C | 55% | 1017.3 hPa | 0 mm | - | - | - |
* Rain since midnight (hover to see other rain measurements)
** Current wind speed in m/s (hover to see current wind gust speed)